Weather in Perevoz

Russia / Irkutsk Oblast     59°00′06″N   116°55′11″E
temp.,
°C
wind,
m/s
gust,
m/s
humid.,
%
clouds,
%
prec.,
mm/h
press.,
hPa
HPBL,
m
10 may, mon
mon1023:00+2nnw2399100 0.3 101482
02:00+2n1298100 0.3 101460
05:00+2n2399100 0.0 1014115
08:00+4n2488100 0.0 1014400
11:00+6ne2475100 0.4 1013888
14:00+8ne3461100 1.5 10121253
17:00+8nne3566100 1.4 10121092
20:00+5nnw1181100 2.4 101312
11 may, tue
tue1123:00+3n3696100 0.3 1014413
02:00+2n2798100 2.6 1014438
05:00+1n2499100 4.1 1015210
08:00+1n2599100 5.1 1015262
11:00+1n2598100 0.7 1016340
14:00+2nne2593100 1.3 1016640
17:00+1n2598100 1.3 1016333
20:000n2499100 3.3 1017287
12 may, wed
wed1223:000n2499100 1.9 1017288
02:00−1n2598100 3.3 1016378
05:00−1n2698100 1.9 1015366
08:000nne3697100 4.0 1015577
11:00+1nne3691100 1.3 1014877
14:00+1nne4785100 2.3 10141042
17:00+1n3783100 0.4 10141061
20:000n3983100 0.8 1015698
13 may, thu
thu1323:00−2nnw2689100 0.1 1015225
02:00−2nnw2688100 0.1 1016249
05:00−2nnw2587100 0.0 1016239
08:00+1nnw3672100 0.0 10161020
11:00+2n3566100 0.1 10151380
14:00+4nnw2560100 0.2 10141470
17:00+5nw1362100 0.1 1014930
20:00+1wsw1186100 0.1 101510
14 may, fri
fri1423:00−2w119183 0.0 101612
02:00−3w119297 0.0 101612
05:00−1w118799 0.0 101626
08:00+4wsw12675 0.0 1014473
11:00+8w134891 0.0 10121965
14:00+9w344394 0.0 10102111
17:00+9w345171 0.0 10091795
20:00+3wsw21725 0.0 101010